This is the latest recevied weather packets stored in our database for station/object KE5SXT-2. If no packets are shown the sender has not sent any weather packets the latest 10 day(s).
| Time | Temp. | Humidity | Pressure | Rain* | Wind** | Luminosity | Snow |
|---|---|---|---|---|---|---|---|
| 1777816221 | 15.56° C | 66% | 1022.7 hPa | 0 mm | - | - | - |
| 1777815620 | 15.56° C | 67% | 1022.7 hPa | 0 mm | - | - | - |
| 1777815020 | 15° C | 70% | 1022.5 hPa | 0 mm | - | - | - |
| 1777812022 | 12.78° C | 76% | 1022.1 hPa | 0 mm | - | - | - |
| 1777811422 | 12.22° C | 77% | 1021.9 hPa | 0 mm | - | - | - |
| 1777809622 | 12.22° C | 78% | 1021.7 hPa | 0 mm | - | - | - |
| 1777805422 | 12.78° C | 77% | 1021.4 hPa | 0 mm | - | - | - |
| 1777795221 | 13.89° C | 70% | 1022 hPa | 0 mm | - | - | - |
| 1777794622 | 13.89° C | 71% | 1022.2 hPa | 0 mm | - | - | - |
| 1777793421 | 14.44° C | 70% | 1022.1 hPa | 0 mm | - | - | - |
| 1777790447 | 15° C | 67% | 1022.5 hPa | 0 mm | - | - | - |
| 1777789221 | 15° C | 66% | 1022.3 hPa | 0 mm | - | - | - |
| 1777774822 | 18.89° C | 50% | 1021.4 hPa | 0 mm | - | - | - |
| 1777773021 | 19.44° C | 46% | 1021.1 hPa | 0 mm | - | - | - |
| 1777770622 | 20.56° C | 41% | 1020.7 hPa | 0 mm | - | - | - |
| 1777770022 | 20.56° C | 40% | 1020.8 hPa | 0 mm | - | - | - |
| 1777769422 | 21.11° C | 39% | 1020.8 hPa | 0 mm | - | - | - |
| 1777765222 | 21.11° C | 37% | 1020.9 hPa | 0 mm | - | - | - |
| 1777758022 | 21.11° C | 39% | 1022.2 hPa | 0 mm | - | - | - |
| 1777756225 | 20.56° C | 39% | 1022.6 hPa | 0 mm | - | - | - |
| 1777737621 | 17.22° C | 53% | 1025.2 hPa | 0 mm | - | - | - |
| 1777736420 | 16.67° C | 57% | 1025.3 hPa | 0 mm | - | - | - |
| 1777729820 | 13.89° C | 79% | 1024.9 hPa | 0 mm | - | - | - |
| 1777729245 | 13.33° C | 79% | 1024.6 hPa | 0 mm | - | - | - |
| 1777726820 | 12.22° C | 83% | 1023.9 hPa | 0 mm | - | - | - |
* Rain latest hour (hover to see other rain measurements)
** Current wind speed in m/s (hover to see current wind gust speed)